TimeCST,TemperatureF,Dew PointF,Humidity,Sea Level PressureIn,VisibilityMPH,Wind Direction,Wind SpeedMPH,Gust SpeedMPH,PrecipitationIn,Events,Conditions,WindDirDegrees,DateUTC
12:53 AM,69.1,60.1,73,29.70,10.0,SSE,15.0,-,N/A,,Scattered Clouds,160,2013-01-29 06:53:00
1:53 AM,69.1,59.0,70,29.70,10.0,South,19.6,27.6,N/A,,Mostly Cloudy,170,2013-01-29 07:53:00
2:53 AM,68.0,59.0,73,29.70,10.0,South,18.4,25.3,N/A,,Scattered Clouds,170,2013-01-29 08:53:00
3:53 AM,66.9,59.0,76,29.67,10.0,South,18.4,-,N/A,,Partly Cloudy,170,2013-01-29 09:53:00
4:53 AM,66.2,59.0,78,29.68,10.0,South,17.3,-,N/A,,Partly Cloudy,170,2013-01-29 10:53:00
5:53 AM,66.9,60.1,79,29.62,10.0,South,19.6,-,N/A,,Partly Cloudy,170,2013-01-29 11:53:00
6:53 AM,66.0,61.0,84,29.60,10.0,South,19.6,27.6,N/A,,Scattered Clouds,170,2013-01-29 12:53:00
7:53 AM,68.0,61.0,78,29.59,8.0,South,18.4,29.9,N/A,,Mostly Cloudy,170,2013-01-29 13:53:00
8:50 AM,69.8,62.6,78,29.59,9.0,South,23.0,32.2,N/A,,Overcast,180,2013-01-29 14:50:00
8:53 AM,69.1,62.1,78,29.57,9.0,South,19.6,32.2,N/A,,Overcast,170,2013-01-29 14:53:00
9:53 AM,70.0,62.1,76,29.54,10.0,South,19.6,31.1,N/A,,Overcast,170,2013-01-29 15:53:00
10:16 AM,69.8,62.6,78,29.57,10.0,South,15.0,25.3,N/A,Thunderstorm,Thunderstorm,190,2013-01-29 16:16:00
10:25 AM,64.4,55.4,73,29.58,10.0,NW,15.0,23.0,N/A,Thunderstorm,Thunderstorm,310,2013-01-29 16:25:00
10:53 AM,57.0,51.1,81,29.59,6.0,NW,26.5,29.9,0.00,Rain-Thunderstorm,Light Thunderstorms and Rain,320,2013-01-29 16:53:00
11:11 AM,55.4,51.8,88,29.59,3.0,NNW,13.8,25.3,0.02,Rain-Thunderstorm,Light Thunderstorms and Rain,340,2013-01-29 17:11:00
11:27 AM,55.4,53.6,94,29.57,2.5,NNW,11.5,-,0.10,Rain-Thunderstorm,Heavy Thunderstorms and Rain,340,2013-01-29 17:27:00
11:53 AM,54.0,53.1,97,29.54,2.0,North,12.7,-,0.29,Rain-Thunderstorm,Heavy Thunderstorms and Rain,350,2013-01-29 17:53:00
11:59 AM,53.6,53.6,100,29.55,1.8,NNW,10.4,-,0.04,Rain-Thunderstorm,Heavy Thunderstorms and Rain,340,2013-01-29 17:59:00
12:12 PM,53.6,53.6,100,29.55,2.0,NE,6.9,-,0.13,Rain-Thunderstorm,Heavy Thunderstorms and Rain,50,2013-01-29 18:12:00
12:15 PM,53.6,53.6,100,29.54,1.8,NE,5.8,-,0.14,Rain-Thunderstorm,Thunderstorms and Rain,40,2013-01-29 18:15:00
12:24 PM,53.6,53.6,100,29.53,1.5,NNE,5.8,-,0.22,Rain-Thunderstorm,Heavy Thunderstorms and Rain,20,2013-01-29 18:24:00
12:53 PM,54.0,53.1,97,29.51,3.0,East,8.1,-,0.36,Rain,Light Rain,90,2013-01-29 18:53:00
1:14 PM,53.6,53.6,100,29.52,4.0,ENE,6.9,-,0.02,Rain,Light Rain,70,2013-01-29 19:14:00
1:50 PM,53.6,53.6,100,29.50,2.5,East,5.8,-,0.08,Rain,Rain,90,2013-01-29 19:50:00
1:53 PM,54.0,53.1,97,29.49,2.5,East,5.8,-,0.09,Rain,Rain,100,2013-01-29 19:53:00
2:13 PM,55.4,53.6,94,29.47,3.0,East,6.9,-,0.03,Rain,Light Rain,80,2013-01-29 20:13:00
2:24 PM,53.6,53.6,100,29.50,7.0,Calm,Calm,-,0.04,Rain,Light Rain,0,2013-01-29 20:24:00
2:53 PM,55.0,54.0,96,29.46,5.0,Calm,Calm,-,0.04,Rain,Light Rain,0,2013-01-29 20:53:00
3:53 PM,55.0,54.0,96,29.45,3.0,ESE,6.9,-,0.05,Rain,Rain,110,2013-01-29 21:53:00
4:53 PM,55.0,54.0,96,29.48,5.0,Variable,4.6,-,0.07,Rain,Light Rain,0,2013-01-29 22:53:00
5:25 PM,55.4,53.6,94,29.47,5.0,Calm,Calm,-,0.01,Rain,Light Rain,0,2013-01-29 23:25:00
5:53 PM,48.9,48.9,100,29.50,5.0,WNW,18.4,23.0,0.01,Rain,Light Rain,300,2013-01-29 23:53:00
6:53 PM,46.9,46.0,97,29.53,7.0,NW,16.1,-,0.00,,Overcast,320,2013-01-30 00:53:00
7:53 PM,45.0,44.1,97,29.59,9.0,WNW,9.2,-,N/A,,Overcast,290,2013-01-30 01:53:00
8:53 PM,45.0,44.1,97,29.51,8.0,NNW,11.5,-,0.00,,Overcast,330,2013-01-30 02:53:00
9:53 PM,44.1,43.0,96,29.59,8.0,WNW,11.5,-,N/A,,Overcast,290,2013-01-30 03:53:00
10:53 PM,43.0,41.0,93,29.57,7.0,WNW,16.1,-,N/A,,Overcast,300,2013-01-30 04:53:00
11:22 PM,42.8,39.2,87,29.61,7.0,West,16.1,-,N/A,,Overcast,280,2013-01-30 05:22:00
11:51 PM,42.8,37.4,81,29.57,7.0,NW,15.0,21.9,N/A,,Overcast,310,2013-01-30 05:51:00
11:53 PM,42.8,37.4,81,29.58,7.0,NW,15.0,21.9,N/A,,Overcast,310,2013-01-30 05:53:00